Location: Fort Worth, Tx
(32.7431°N, 97.3695°W)
Time: 07:44:10
(UTC-04:00)

Vanguard 3 - Pass Details

Date: 28 February 2024
Orbit: 510 x 3234 km, 33.3° (Epoch: 24 April)

Event Time Altitude Azimuth Distance (km) Brightness Sun altitude
Rises 22:58:38 0° 265° (W) 6,832 12.5 -44.7°
Reaches altitude 10° 23:02:55 10° 266° (W) 5,990 12.0 -45.6°
Enters shadow 23:22:25 86° 297° (WNW) 3,141 9.7 -49.2°
